| time (UTC) | temp F | wind direction | speed knots | gust knots | rain 1hr in | rain 24hr in | rain mn in | humidity % | barometer mb |
| 20260901160340 | 83 | 6 | 0.0 | 0.0 | 0.00 | 0.01 | 0.00 | ||
| 20260901154840 | 86 | 6 | 0.0 | 0.0 | 0.00 | 0.01 | 0.00 | ||
| 20260901153339 | 84 | 6 | 0.0 | 0.0 | 0.00 | 0.01 | 0.00 | ||
| 20260901151838 | 85 | 6 | 0.0 | 0.0 | 0.00 | 0.01 | 0.00 | ||
| 20260901150338 | 84 | 6 | 0.0 | 0.0 | 0.00 | 0.01 | 0.00 | ||
| 20260901144838 | 82 | 6 | 0.0 | 0.0 | 0.00 | 0.01 | 0.00 | ||
| 20260901143338 | 80 | 6 | 0.0 | 0.0 | 0.00 | 0.01 | 0.00 | ||
| 20260901141841 | 77 | 6 | 0.0 | 0.0 | 0.00 | 0.01 | 0.00 | ||
| 20260901140339 | 72 | 6 | 0.0 | 0.0 | 0.00 | 0.01 | 0.00 | ||
| 20260901134838 | 68 | 6 | 0.0 | 0.0 | 0.00 | 0.01 | 0.00 | ||
| 20260901131838 | 65 | 6 | 0.0 | 0.0 | 0.00 | 0.01 | 0.00 | ||
| 20260901130339 | 59 | 6 | 0.0 | 0.0 | 0.00 | 0.01 | 0.00 | ||
| 20260901124839 | 58 | 6 | 0.0 | 0.0 | 0.00 | 0.01 | 0.00 | ||
| 20260901123339 | 58 | 6 | 0.0 | 0.0 | 0.00 | 0.01 | 0.00 | ||
| 20260901121839 | 58 | 6 | 0.0 | 0.0 | 0.00 | 0.01 | 0.00 | ||
| 20260901120339 | 59 | 6 | 0.0 | 0.0 | 0.00 | 0.01 | 0.00 | ||
| 20260901114839 | 59 | 6 | 0.0 | 0.0 | 0.00 | 0.01 | 0.00 | ||
| 20260901113339 | 58 | 6 | 0.0 | 0.0 | 0.00 | 0.01 | 0.00 | ||
| 20260901111839 | 59 | 6 | 0.0 | 0.0 | 0.00 | 0.01 | 0.00 | ||
| 20260901110339 | 60 | 6 | 0.0 | 0.0 | 0.00 | 0.01 | 0.00 | ||
| 20260901104839 | 60 | 6 | 0.0 | 0.0 | 0.00 | 0.01 | 0.00 | ||
| 20260901103339 | 60 | 6 | 0.0 | 0.0 | 0.00 | 0.01 | 0.00 | ||
| 20260901101839 | 60 | 6 | 0.0 | 0.0 | 0.00 | 0.01 | 0.00 | ||
| 20260901100339 | 60 | 6 | 0.0 | 0.0 | 0.00 | 0.01 | 0.00 | ||
| 20260901094839 | 59 | 6 | 0.0 | 0.0 | 0.00 | 0.01 | 0.00 | ||
| 20260901093339 | 59 | 6 | 0.0 | 0.0 | 0.00 | 0.01 | 0.00 | ||
| 20260901091839 | 59 | 6 | 0.0 | 0.0 | 0.00 | 0.01 | 0.00 | ||
| 20260901090339 | 59 | 6 | 0.0 | 0.0 | 0.00 | 0.01 | 0.00 | ||
| 20260901084839 | 61 | 6 | 0.0 | 0.0 | 0.00 | 0.01 | 0.00 | ||
| 20260901083339 | 60 | 6 | 0.0 | 0.0 | 0.00 | 0.01 | 0.00 | ||
| 20260901081840 | 62 | 6 | 0.0 | 0.0 | 0.00 | 0.01 | 0.00 | ||
| 20260901080339 | 62 | 6 | 0.0 | 0.0 | 0.00 | 0.01 | 0.00 | ||
| 20260901074840 | 62 | 6 | 0.0 | 0.0 | 0.00 | 0.01 | 0.00 | ||
| 20260901073339 | 62 | 6 | 0.0 | 0.0 | 0.00 | 0.01 | 0.00 | ||
| 20260901071840 | 61 | 290 | 0.0 | 1.7 | 0.00 | 0.01 | 0.00 | ||
| 20260901070340 | 62 | 302 | 2.6 | 0.9 | 0.00 | 0.01 | 0.00 | ||
| 20260901064840 | 61 | 37 | 0.0 | 0.0 | 0.00 | 0.01 | 0.00 | ||
| 20260901063340 | 61 | 46 | 0.0 | 0.0 | 0.00 | 0.01 | 0.00 | ||
| 20260901061840 | 61 | 46 | 0.0 | 0.0 | 0.00 | 0.01 | 0.00 | ||
| 20260901060340 | 62 | 135 | 0.9 | 1.7 | 0.00 | 0.01 | 0.00 | ||
| 20260901054841 | 67 | 90 | 0.9 | 0.9 | 0.00 | 0.00 | 0.01 | ||
| 20260901053341 | 66 | 214 | 2.6 | 0.0 | 0.00 | 0.00 | 0.01 | ||
| 20260901051841 | 65 | 94 | 1.7 | 0.0 | 0.00 | 0.00 | 0.01 | ||
| 20260901050341 | 65 | 132 | 0.9 | 2.6 | 0.00 | 0.00 | 0.01 | ||
| 20260901044841 | 66 | 121 | 2.6 | 0.9 | 0.00 | 0.00 | 0.01 | ||
| 20260901043342 | 66 | 108 | 1.7 | 5.2 | 0.00 | 0.00 | 0.01 | ||
| 20260901041842 | 68 | 155 | 1.7 | 5.2 | 0.00 | 0.00 | 0.01 | ||
| 20260901034842 | 65 | 194 | 2.6 | 2.6 | 0.00 | 0.00 | 0.01 | ||
| 20260901033342 | 65 | 163 | 4.3 | 3.5 | 0.00 | 0.00 | 0.01 | ||
| 20260901031842 | 66 | 172 | 5.2 | 5.2 | 0.00 | 0.00 | 0.01 | ||
| 20260901030342 | 66 | 193 | 7.8 | 7.0 | 0.00 | 0.00 | 0.01 | ||
| 20260901024842 | 65 | 194 | 7.0 | 6.1 | 0.00 | 0.00 | 0.01 | ||
| 20260901023342 | 63 | 165 | 7.0 | 9.6 | 0.00 | 0.00 | 0.01 | ||
| 20260901021842 | 67 | 208 | 9.6 | 7.8 | 0.00 | 0.00 | 0.01 | ||
| 20260901020342 | 69 | 224 | 5.2 | 6.1 | 0.00 | 0.00 | 0.01 | ||
| 20260901013341 | 76 | 183 | 4.3 | 2.6 | 0.00 | 0.00 | 0.01 | ||
| 20260901010340 | 79 | 31 | 0.0 | 0.0 | 0.00 | 0.00 | 0.01 | ||
| 20260901004840 | 82 | 31 | 0.0 | 0.0 | 0.00 | 0.00 | 0.01 | ||
| 20260901003340 | 82 | 32 | 1.7 | 0.9 | 0.00 | 0.00 | 0.01 | ||
| 20260901001840 | 85 | 72 | 0.0 | 0.0 | 0.00 | 0.00 | 0.01 | ||
| 20260901000339 | 87 | 113 | 0.9 | 0.0 | 0.00 | 0.00 | 0.01 | ||
| 20260831234839 | 86 | 139 | 1.7 | 0.9 | 0.00 | 0.00 | 0.01 | ||
| 20260831233339 | 88 | 165 | 0.9 | 1.7 | 0.00 | 0.00 | 0.01 | ||
| 20260831231838 | 91 | 162 | 2.6 | 0.9 | 0.00 | 0.00 | 0.01 | ||
| 20260831230339 | 89 | 180 | 0.9 | 2.6 | 0.00 | 0.00 | 0.01 | ||
| 20260831224838 | 83 | 129 | 0.9 | 0.0 | 0.01 | 0.00 | 0.01 | ||
| 20260831223337 | 80 | 150 | 0.0 | 0.0 | 0.01 | 0.00 | 0.01 | ||
| 20260831220336 | 75 | 228 | 0.0 | 1.7 | 0.01 | 0.00 | 0.01 | ||
| 20260831214836 | 74 | 248 | 0.0 | 0.0 | 0.00 | 0.00 | 0.01 | ||
| 20260831213335 | 82 | 197 | 0.0 | 2.6 | 0.00 | 0.00 | 0.00 | ||
| 20260831210334 | 87 | 165 | 0.9 | 0.9 | 0.00 | 0.00 | 0.00 | ||
| 20260831204833 | 87 | 97 | 5.2 | 0.0 | 0.00 | 0.00 | 0.00 | ||
| 20260831203333 | 86 | 91 | 0.9 | 0.0 | 0.00 | 0.00 | 0.00 | ||
| 20260831201832 | 87 | 120 | 1.7 | 4.3 | 0.00 | 0.00 | 0.00 | ||
| 20260831200331 | 87 | 146 | 4.3 | 2.6 | 0.00 | 0.00 | 0.00 | ||
| 20260831194831 | 87 | 65 | 0.9 | 0.9 | 0.00 | 0.00 | 0.00 | ||
| 20260831193329 | 89 | 131 | 1.7 | 1.7 | 0.00 | 0.00 | 0.00 | ||
| 20260831191829 | 91 | 96 | 1.7 | 0.0 | 0.00 | 0.00 | 0.00 | ||
| 20260831190329 | 90 | 150 | 0.9 | 0.0 | 0.00 | 0.00 | 0.00 | ||
| 20260831184827 | 88 | 103 | 0.0 | 1.7 | 0.00 | 0.00 | 0.00 | ||
| 20260831183327 | 90 | 108 | 0.0 | 0.0 | 0.00 | 0.00 | 0.00 | ||
| 20260831181825 | 91 | 58 | 0.0 | 0.9 | 0.00 | 0.00 | 0.00 | ||
| 20260831180325 | 91 | 28 | 2.6 | 0.9 | 0.00 | 0.00 | 0.00 | ||
| 20260831174823 | 92 | 359 | 3.5 | 3.5 | 0.00 | 0.00 | 0.00 | ||
| 20260831163320 | 89 | 103 | 0.9 | 0.0 | 0.00 | 0.00 | 0.00 | ||
| 20260831161819 | 89 | 39 | 0.0 | 0.0 | 0.00 | 0.00 | 0.00 |